sat.trackr.live / text

‹ back to catalog

STARLINK-3334

NORAD 50823 · 2022-001W

PAYLOAD ACTIVE UNKNOWN

§ Identity

Operator
Country
US
Launch date
2022-01-06
Launch site
AFETR
Launch vehicle
Mass (kg)
RCS (m²)

Purposes: comms

External: N2YO · Heavens-Above · Gunter

§ Orbital elements

Epoch: 2026-09-20T00:08:49.180992Z

Period
93.85 min
Inclination
53.1610°
Eccentricity
0.0001076
Mean motion
15.34391784 rev/d
Perigee alt
462.0 km
Apogee alt
463.5 km
Semi-major
6,840.9 km
B*
4.4290e-5
RAAN
4.3743°
Arg perigee
109.2804°
Mean anomaly
250.8315°
Rev number
25,991

§ Raw data

STARLINK-33341 50823U 22001W   26263.00612478  .00001120  00000+0  44290-4 0  99962 50823  53.1610   4.3743 0001076 109.2804 250.8315 15.34391784259910

JSON: /api/v1/satellites/50823 · /tle

For live sub-satellite position, see the globe view (requires WebGL).

§ Visibility from observer

Set your observer location to see the next 7 days of passes ≥ 10°. The values pass through the URL so the page stays shareable.

No JS? Fill the form by hand. The geolocation button needs JavaScript.